Weather History for Tallahassee, FL

Change the Weather History Date:

Sunday, May 5, 2013

  Actual Average Record
Temperature  
Mean Temperature 62 °F 71 °F  
Max Temperature 77 °F 85 °F 95 °F (1947)
Min Temperature 47 °F 58 °F 36 °F (1971)
Degree Days  
Heating Degree Days 3    
Month to date heating degree days 6  
Since 1 July heating degree days 1324  
Cooling Degree Days 0    
Month to date cooling degree days 18  
Year to date cooling degree days 215  
Growing Degree Days 12 (Base 50)    
Moisture  
Dew Point 46 °F    
Average Humidity 60    
Maximum Humidity 86    
Minimum Humidity 33    
Precipitation  
Precipitation T in 0.09 in 1.73 in (1967)
Month to date precipitation 0.31 0.42  
Year to date precipitation 22.27 18.61  
Sea Level Pressure  
Sea Level Pressure 29.87 in    
Wind  
Wind Speed 8 mph (West)    
Max Wind Speed 18 mph    
Max Gust Speed 25 mph    
Visibility 10 miles    
Events      
T = Trace of Precipitation, MM = Missing Value Source: NWS Daily Summary

Daily Weather History Graph

Daily Weather History Graph

Search for Another Location

Airport:

Trip Planner

Search our weather history database for the weather conditions in past years. The results will help you decide how hot, cold, wet, or windy it might be!

Date:

Astronomy

May. 05, 2013 Rise Set
Actual Time 6:50 AM EDT 8:18 PM EDT
Civil Twilight 6:24 AM EDT 8:43 PM EDT
Nautical Twilight 5:53 AM EDT 9:14 PM EDT
Astronomical Twilight 5:21 AM EDT 9:46 PM EDT
Moon 4:02 AM EDT (5/5) 4:32 PM EDT (5/5)
Length of Visible Light 14h 19m
Length of Day
13h 27m
Waning Crescent, 18% of the Moon is Illuminated
May 5
Waning Crescent
May 9
New
May 18
First Quarter
May 25
Full
May 31
Last Quarter

Hourly Weather History & Observations

Time (EDT) Temp. Dew Point Humidity Pressure Visibility Wind Dir Wind Speed Gust Speed Precip Events Conditions
12:53 AM 55.0 °F 46.9 °F 74% 29.86 in 10.0 mi WNW 6.9 mph - N/A   Mostly Cloudy
1:53 AM 52.0 °F 46.9 °F 83% 29.86 in 10.0 mi WNW 6.9 mph - N/A   Clear
2:53 AM 51.1 °F 46.0 °F 83% 29.85 in 10.0 mi West 8.1 mph - N/A   Clear
3:53 AM 50.0 °F 45.0 °F 83% 29.84 in 10.0 mi WNW 4.6 mph - N/A   Clear
4:53 AM 48.9 °F 44.1 °F 83% 29.84 in 10.0 mi WNW 5.8 mph - N/A   Clear
5:53 AM 48.9 °F 43.0 °F 80% 29.86 in 10.0 mi WNW 8.1 mph - N/A   Clear
6:53 AM 48.0 °F 43.0 °F 83% 29.88 in 10.0 mi Calm Calm - N/A   Clear
7:53 AM 50.0 °F 43.0 °F 77% 29.91 in 10.0 mi Calm Calm - N/A   Clear
8:53 AM 55.9 °F 44.1 °F 64% 29.92 in 10.0 mi WNW 4.6 mph - N/A   Clear
9:53 AM 62.1 °F 43.0 °F 50% 29.92 in 10.0 mi Variable 4.6 mph - N/A   Clear
10:53 AM 66.9 °F 41.0 °F 39% 29.92 in 10.0 mi WNW 5.8 mph - N/A   Clear
11:53 AM 70.0 °F 43.0 °F 38% 29.91 in 10.0 mi WSW 9.2 mph 17.3 mph N/A   Clear
12:53 PM 72.0 °F 45.0 °F 38% 29.89 in 10.0 mi Variable 5.8 mph - N/A   Partly Cloudy
1:53 PM 75.2 °F 46.4 °F 36% 29.87 in 10.0 mi SW 10.4 mph 16.1 mph N/A   Scattered Clouds
2:53 PM 73.9 °F 50.0 °F 43% 29.86 in 10.0 mi WSW 11.5 mph - N/A   Mostly Cloudy
3:53 PM 69.1 °F 52.0 °F 54% 29.85 in 10.0 mi South 6.9 mph - N/A   Mostly Cloudy
4:53 PM 68.0 °F 54.0 °F 61% 29.85 in 10.0 mi WSW 4.6 mph - 0.00 in   Overcast
5:53 PM 72.0 °F 53.1 °F 51% 29.83 in 10.0 mi SSW 15.0 mph 18.4 mph N/A   Scattered Clouds
6:53 PM 73.0 °F 54.0 °F 51% 29.82 in 10.0 mi SW 13.8 mph 20.7 mph N/A   Partly Cloudy
7:53 PM 69.8 °F 39.2 °F 33% 29.82 in 10.0 mi SW 16.1 mph - N/A   Partly Cloudy
8:53 PM 66.0 °F 42.1 °F 42% 29.84 in 10.0 mi WSW 12.7 mph 17.3 mph N/A   Clear
9:53 PM 61.0 °F 45.0 °F 56% 29.87 in 10.0 mi West 5.8 mph - N/A   Clear
10:53 PM 61.0 °F 48.0 °F 62% 29.89 in 10.0 mi West 8.1 mph - N/A   Partly Cloudy
11:53 PM 60.1 °F 44.1 °F 55% 29.91 in 10.0 mi WNW 10.4 mph - N/A   Clear